Location: Recife
(8.0585°S, 34.8848°W)
Time: 10:54:25
(UTC-03:00)

SR - Pass Details

Date: 18 April 2026
Orbit: 568 x 852 km, 66.7° (Epoch: 12 May)

Event Time Altitude Azimuth Distance (km) Brightness Sun altitude
Rises 23:18:20 0° 347° (NNW) 3,398 - -86.9°
Reaches altitude 10° 23:20:51 10° 351° (N) 2,461 - -86.9°
Maximum altitude 23:26:30 62° 70° (ENE) 930 - -86.4°
Drops below altitude 10° 23:31:56 10° 150° (SSE) 2,374 - -85.5°
Sets 23:34:19 0° 153° (SSE) 3,270 - -85.1°
